Weather History for Lumberton, NC

Change the Weather History Date:

Wednesday, September 14, 2011

  Actual Average Record
Temperature  
Mean Temperature 77 °F 74 °F  
Max Temperature 91 °F 84 °F 94 °F (2010)
Min Temperature 63 °F 63 °F 56 °F (2010)
Degree Days  
Heating Degree Days 0 0  
Month to date heating degree days 0 0  
Since 1 July heating degree days 0 0  
Cooling Degree Days 12 9  
Month to date cooling degree days 166 143  
Year to date cooling degree days 2121 1715  
Growing Degree Days 26 (Base 50)    
Moisture  
Dew Point 67 °F    
Average Humidity 69    
Maximum Humidity 100    
Minimum Humidity 38    
Precipitation  
Precipitation 0.00 in 0.14 in 0.81 in (2002)
Month to date precipitation 0.83 2.34  
Year to date precipitation 31.92 32.73  
Sea Level Pressure  
Sea Level Pressure 29.98 in    
Wind  
Wind Speed 1 mph (WSW)    
Max Wind Speed 8 mph    
Max Gust Speed 15 mph    
Visibility 6 miles    
Events Fog    
T = Trace of Precipitation, MM = Missing Value Source: NWS Daily Summary

Daily Weather History Graph

Daily Weather History Graph

Search for Another Location

Airport:

Trip Planner

Search our weather history database for the weather conditions in past years. The results will help you decide how hot, cold, wet, or windy it might be!

Date:

Astronomy

Sep. 14, 2011 Rise Set
Actual Time 6:58 AM EDT 7:24 PM EDT
Civil Twilight 6:33 AM EDT 7:50 PM EDT
Nautical Twilight 6:03 AM EDT 8:19 PM EDT
Astronomical Twilight 5:33 AM EDT 8:49 PM EDT
Moon 8:18 PM EDT (9/14) 8:58 AM EDT (9/14)
Length of Visible Light 13h 17m
Length of Day
12h 26m
Waning Gibbous, 95% of the Moon is Illuminated
Sep 14
Waning Gibbous
Sep 20
Last Quarter
Sep 27
New
Oct 3
First Quarter
Oct 11
Full

Hourly Weather History & Observations

Time (EDT) Temp. Heat Index Dew Point Humidity Pressure Visibility Wind Dir Wind Speed Gust Speed Precip Events Conditions
12:54 AM 68.0 °F - 66.0 °F 93% 29.99 in 6.0 mi Calm Calm - N/A   Clear
2:54 AM 66.0 °F - 64.9 °F 96% 29.97 in 4.0 mi Calm Calm - N/A   Clear
3:54 AM 64.9 °F - 64.0 °F 97% 29.97 in 4.0 mi Calm Calm - N/A   Clear
4:54 AM 64.9 °F - 64.0 °F 97% 29.98 in 4.0 mi Calm Calm - N/A   Clear
6:54 AM 63.0 °F - 62.1 °F 97% 29.99 in 4.0 mi Calm Calm - N/A   Scattered Clouds
7:04 AM 64.4 °F - 62.6 °F 94% 30.00 in 3.0 mi Calm Calm - N/A   Mostly Cloudy
7:12 AM 64.4 °F - 62.6 °F 94% 30.00 in 1.5 mi Calm Calm - N/A   Overcast
7:54 AM 64.9 °F - 64.9 °F 100% 30.01 in 0.2 mi Calm Calm - N/A Fog Fog
8:54 AM 69.1 °F - 69.1 °F 100% 30.01 in 0.2 mi Calm Calm - N/A Fog Fog
9:00 AM 69.8 °F - 69.8 °F 100% 30.01 in 1.2 mi Calm Calm - N/A   Mostly Cloudy
9:02 AM 69.8 °F - 69.8 °F 100% 30.01 in 2.0 mi Calm Calm - N/A   Mostly Cloudy
9:06 AM 69.8 °F - 69.8 °F 100% 30.01 in 3.0 mi Calm Calm - N/A   Scattered Clouds
9:54 AM 78.1 °F - 72.0 °F 81% 30.01 in 10.0 mi West 4.6 mph - N/A   Clear
10:54 AM 82.0 °F 86.3 °F 71.1 °F 69% 30.01 in 10.0 mi West 4.6 mph - N/A   Clear
11:54 AM 84.0 °F 88.4 °F 70.0 °F 63% 30.00 in 10.0 mi West 4.6 mph - N/A   Clear
12:54 PM 86.0 °F 89.4 °F 68.0 °F 55% 29.99 in 10.0 mi Calm Calm - N/A   Clear
1:54 PM 89.1 °F 91.0 °F 64.9 °F 45% 29.97 in 10.0 mi SSE 3.5 mph - N/A   Scattered Clouds
2:54 PM 90.0 °F 90.0 °F 61.0 °F 38% 29.95 in 10.0 mi Calm Calm - N/A   Clear
3:54 PM 89.1 °F 89.0 °F 61.0 °F 39% 29.93 in 10.0 mi Calm Calm - N/A   Clear
5:54 PM 87.1 °F 88.3 °F 64.0 °F 46% 29.91 in 10.0 mi Calm Calm - N/A   Clear
6:54 PM 82.9 °F 85.8 °F 68.0 °F 60% 29.92 in 10.0 mi Calm Calm - N/A   Clear
7:54 PM 78.1 °F - 68.0 °F 71% 29.92 in 10.0 mi Calm Calm - N/A   Clear
8:54 PM 75.9 °F - 69.1 °F 79% 29.94 in 10.0 mi Calm Calm - N/A   Clear
9:54 PM 75.0 °F - 68.0 °F 79% 29.94 in 10.0 mi Calm Calm - N/A   Clear
10:54 PM 72.0 °F - 68.0 °F 87% 29.94 in 10.0 mi Calm Calm - N/A   Clear